Simultaneous Nadir Overpasses (SNOs) Predictions

Prediction of SNOs between GOES-16 and METOP-B Satellite Orbit:

Table of predicted SNOs for the next 14.0 days since TLE Epoch: 2/1/2019
Index Date Time (GOES-16) GOES-16 Lat,Lon METOP-B Lat,Lon Distance(km) Time Diff (sec)
1 02/02/2019 02:24:12 -0.01, -75.18 0.33, -73.56 183.68 80
2 02/03/2019 14:40:26 0.00, -75.18 0.66, -78.13 335.76 80
3 02/04/2019 14:22:27 0.01, -75.18 -0.47, -73.14 233.09 80
4 02/06/2019 02:38:49 -0.01, -75.17 -0.56, -77.74 291.70 80
5 02/07/2019 02:20:49 -0.01, -75.17 0.51, -72.73 277.63 80
6 02/08/2019 14:37:02 0.01, -75.19 0.49, -77.30 240.49 80
7 02/09/2019 14:19:04 0.02, -75.19 -0.64, -72.31 329.13 80
8 02/11/2019 02:35:25 -0.02, -75.19 -0.38, -76.90 194.63 80
9 02/12/2019 02:17:26 -0.01, -75.20 0.69, -71.90 375.17 80
10 02/13/2019 14:33:39 0.01, -75.22 0.31, -76.47 142.55 80
11 02/14/2019 14:15:41 0.01, -75.23 -0.82, -71.48 427.22 80




NCC Satellite Simultaneous Nadir Overpasses (SNOs) Prediction Service
